EJU1KP EDDF-EGKK

Flight info

Callsign EJU1KP
Flight time N/A
Altitude 36000
Route OBOKA3M/25C OBOKA Z29 TORNU DCT BREDA DCT VICOT DCT GALSO Q63 ARREK Y4 TEBRA DCT ABTUM DCT ARNUN DCT LARCK
Aircraft A320/M-SDE3FGHIRWY/LB1

Departure

Time 2026-05-04 15:20
Airport Frankfurt Main Airport (EDDF)

Arrival

Time N/A
Airport London Gatwick Airport (EGKK)
Time Latitude Longitude Altitude Speed Heading
2026-05-04 14:20 50.04803 8.58421 363 ft 0 kts 160°
2026-05-04 15:03 50.04806 8.58419 362 ft 3 kts 160°
2026-05-04 15:03 50.04831 8.58405 363 ft 4 kts 158°
2026-05-04 15:04 50.04855 8.58385 360 ft 4 kts 140°
2026-05-04 15:04 50.04870 8.58355 359 ft 4 kts 99°
2026-05-04 15:04 50.04870 8.58333 359 ft 1 kts 70°
2026-05-04 15:04 50.04869 8.58329 359 ft 0 kts 70°
2026-05-04 15:12 50.04869 8.58331 359 ft 1 kts 70°
2026-05-04 15:12 50.04881 8.58378 359 ft 6 kts 70°
2026-05-04 15:12 50.04896 8.58442 359 ft 6 kts 70°
2026-05-04 15:13 50.04912 8.58511 359 ft 8 kts 70°
2026-05-04 15:13 50.04922 8.58554 359 ft 1 kts 70°
2026-05-04 15:13 50.04922 8.58555 359 ft 0 kts 70°
2026-05-04 15:13 50.04924 8.58563 359 ft 1 kts 70°
2026-05-04 15:14 50.04929 8.58616 359 ft 2 kts 91°
2026-05-04 15:14 50.04928 8.58629 359 ft 4 kts 100°
2026-05-04 15:14 50.04904 8.58672 361 ft 4 kts 147°
2026-05-04 15:14 50.04876 8.58690 362 ft 5 kts 159°
2026-05-04 15:15 50.04846 8.58707 363 ft 4 kts 161°
2026-05-04 15:15 50.04816 8.58724 364 ft 5 kts 160°
2026-05-04 15:15 50.04781 8.58743 366 ft 5 kts 160°
2026-05-04 15:16 50.04705 8.58768 369 ft 0 kts 183°
2026-05-04 15:16 50.04690 8.58766 370 ft 10 kts 184°
2026-05-04 15:16 50.04584 8.58720 371 ft 10 kts 213°
2026-05-04 15:17 50.04509 8.58619 371 ft 17 kts 224°
2026-05-04 15:17 50.04472 8.58519 370 ft 0 kts 249°
2026-05-04 15:19 50.04329 8.57915 364 ft 91 kts 249°
2026-05-04 15:20 50.04040 8.56712 357 ft 144 kts 249°
2026-05-04 15:20 50.03642 8.55067 564 ft 171 kts 250°
2026-05-04 15:20 50.03228 8.53310 1233 ft 173 kts 249°
2026-05-04 15:20 50.02799 8.51521 1793 ft 185 kts 250°
2026-05-04 15:21 50.02028 8.49846 2270 ft 202 kts 214°
2026-05-04 15:21 50.00717 8.48948 2903 ft 209 kts 201°
2026-05-04 15:21 49.97883 8.47701 4315 ft 212 kts 198°
2026-05-04 15:22 49.96470 8.47101 5056 ft 210 kts 197°
2026-05-04 15:22 49.95047 8.46485 5621 ft 218 kts 196°
2026-05-04 15:22 49.91978 8.44855 6789 ft 241 kts 212°
2026-05-04 15:23 49.90751 8.43089 7653 ft 244 kts 233°
2026-05-04 15:23 49.89855 8.40830 8516 ft 247 kts 236°
2026-05-04 15:23 49.89036 8.38491 9418 ft 251 kts 245°
2026-05-04 15:23 49.88625 8.35815 10225 ft 264 kts 262°
2026-05-04 15:24 49.88866 8.29594 10846 ft 314 kts 273°
2026-05-04 15:24 49.90697 8.23120 12150 ft 344 kts 304°
2026-05-04 15:25 49.92140 8.20101 12790 ft 355 kts 304°
2026-05-04 15:25 49.93670 8.16934 12999 ft 380 kts 307°